Time,TemperatureF,DewpointF,PressureIn,WindDirection,WindDirectionDegrees,WindSpeedMPH,WindSpeedGustMPH,Humidity,HourlyPrecipIn,Conditions,Clouds,dailyrainin,SoftwareType,DateUTC
2013-03-12 00:02:00,44.1,31.2,29.95,SSE,162,10.4,16.2,60,0.00,,,0.00,VWS V14.00,2013-03-12 04:02:00,
2013-03-12 00:05:00,43.7,31.0,29.95,SE,131,6.6,16.2,61,0.00,,,0.00,VWS V14.00,2013-03-12 04:05:00,
2013-03-12 00:11:00,43.6,31.2,29.94,SSE,163,6.6,16.2,61,0.00,,,0.00,VWS V14.00,2013-03-12 04:11:00,
2013-03-12 00:18:00,43.6,31.6,29.94,SSE,149,6.7,16.2,62,0.00,,,0.00,VWS V14.00,2013-03-12 04:18:00,
2013-03-12 00:21:00,43.6,31.6,29.94,South,190,0.0,16.2,62,0.00,,,0.00,VWS V14.00,2013-03-12 04:21:00,
2013-03-12 00:27:00,43.6,31.9,29.94,SE,143,0.0,16.2,63,0.00,,,0.00,VWS V14.00,2013-03-12 04:27:00,
2013-03-12 00:33:00,43.5,32.0,29.94,ESE,122,5.7,16.2,64,0.00,,,0.00,VWS V14.00,2013-03-12 04:33:00,
2013-03-12 00:39:00,43.5,32.7,29.95,SE,127,0.0,16.2,65,0.00,,,0.00,VWS V14.00,2013-03-12 04:39:00,
2013-03-12 00:45:00,43.3,32.6,29.96,ESE,115,0.0,16.2,66,0.00,,,0.00,VWS V14.00,2013-03-12 04:45:00,
2013-03-12 00:51:00,43.2,32.8,29.96,SW,228,0.0,8.0,67,0.00,,,0.00,VWS V14.00,2013-03-12 04:51:00,
2013-03-12 00:57:00,43.3,33.2,29.96,NNE,21,0.0,8.0,67,0.00,,,0.00,VWS V14.00,2013-03-12 04:57:00,
2013-03-12 01:03:00,43.1,33.4,29.96,ESE,105,0.0,8.0,68,0.00,,,0.00,VWS V14.00,2013-03-12 05:03:00,
2013-03-12 01:09:00,43.0,33.5,29.96,SSE,163,7.2,8.0,69,0.00,,,0.00,VWS V14.00,2013-03-12 05:09:00,
2013-03-12 01:15:00,43.1,33.9,29.95,SE,132,4.2,8.6,70,0.00,,,0.00,VWS V14.00,2013-03-12 05:15:00,
2013-03-12 01:21:00,43.1,34.2,29.95,SE,146,0.0,8.6,70,0.00,,,0.00,VWS V14.00,2013-03-12 05:21:00,
2013-03-12 01:27:00,43.0,34.4,29.94,SSE,150,8.3,8.6,71,0.00,,,0.00,VWS V14.00,2013-03-12 05:27:00,
2013-03-12 01:33:00,43.2,35.1,29.94,SE,134,6.2,10.4,73,0.00,,,0.00,VWS V14.00,2013-03-12 05:33:00,
2013-03-12 01:39:00,43.5,36.0,29.94,ENE,76,4.8,11.2,74,0.00,,,0.00,VWS V14.00,2013-03-12 05:39:00,
2013-03-12 01:45:00,43.7,36.2,29.93,SE,128,6.5,11.2,75,0.00,,,0.00,VWS V14.00,2013-03-12 05:45:00,
2013-03-12 01:51:00,44.0,36.6,29.94,ENE,76,0.0,13.0,75,0.00,,,0.00,VWS V14.00,2013-03-12 05:51:00,
2013-03-12 01:58:00,44.1,36.9,29.94,NE,38,3.1,13.0,76,0.00,,,0.00,VWS V14.00,2013-03-12 05:58:00,
2013-03-12 02:04:00,44.2,37.2,29.93,ESE,103,5.5,13.0,76,0.00,,,0.00,VWS V14.00,2013-03-12 06:04:00,
2013-03-12 02:10:00,44.3,37.5,29.93,East,87,6.8,13.0,77,0.00,,,0.00,VWS V14.00,2013-03-12 06:10:00,
2013-03-12 02:16:00,44.3,37.7,29.93,East,84,3.5,13.0,77,0.00,,,0.00,VWS V14.00,2013-03-12 06:16:00,
2013-03-12 02:22:00,44.5,38.1,29.93,SSE,149,4.8,13.0,78,0.00,,,0.00,VWS V14.00,2013-03-12 06:22:00,
2013-03-12 02:28:00,44.6,38.2,29.93,SE,127,7.6,13.0,78,0.00,,,0.00,VWS V14.00,2013-03-12 06:28:00,
2013-03-12 02:34:00,44.5,38.3,29.92,NE,44,4.5,13.0,79,0.00,,,0.00,VWS V14.00,2013-03-12 06:34:00,
2013-03-12 02:40:00,44.4,38.3,29.91,South,172,7.0,13.0,79,0.00,,,0.00,VWS V14.00,2013-03-12 06:40:00,
2013-03-12 02:46:00,44.5,38.5,29.91,NE,46,0.0,13.5,79,0.00,,,0.00,VWS V14.00,2013-03-12 06:46:00,
2013-03-12 02:52:00,44.4,38.5,29.92,SE,128,5.9,13.5,80,0.00,,,0.00,VWS V14.00,2013-03-12 06:52:00,
2013-03-12 02:58:00,44.5,38.6,29.92,SSE,159,4.8,13.5,80,0.00,,,0.00,VWS V14.00,2013-03-12 06:58:00,
2013-03-12 03:04:00,44.4,38.7,29.92,SSE,159,0.0,13.5,80,0.00,,,0.00,VWS V14.00,2013-03-12 07:04:00,
2013-03-12 03:10:00,44.7,38.9,29.92,SSE,165,5.8,13.5,80,0.00,,,0.00,VWS V14.00,2013-03-12 07:10:00,
2013-03-12 03:16:00,44.6,38.8,29.92,SSE,159,7.5,13.5,80,0.00,,,0.00,VWS V14.00,2013-03-12 07:16:00,
2013-03-12 03:22:00,44.6,38.8,29.92,SE,131,0.0,13.5,80,0.00,,,0.00,VWS V14.00,2013-03-12 07:22:00,
2013-03-12 03:28:00,44.4,38.7,29.91,East,101,3.4,13.5,80,0.00,,,0.00,VWS V14.00,2013-03-12 07:28:00,
2013-03-12 03:34:00,44.4,38.7,29.92,SE,142,5.8,13.5,80,0.00,,,0.00,VWS V14.00,2013-03-12 07:34:00,
2013-03-12 03:40:00,44.2,38.7,29.92,NE,46,7.0,13.5,81,0.00,,,0.00,VWS V14.00,2013-03-12 07:40:00,
2013-03-12 03:46:00,44.2,38.7,29.91,ESE,103,0.0,13.5,81,0.00,,,0.00,VWS V14.00,2013-03-12 07:46:00,
2013-03-12 03:52:00,44.1,38.9,29.91,SE,128,5.9,13.5,82,0.00,,,0.00,VWS V14.00,2013-03-12 07:52:00,
2013-03-12 03:58:00,44.0,39.3,29.90,SE,131,6.3,13.5,84,0.00,,,0.00,VWS V14.00,2013-03-12 07:58:00,
2013-03-12 04:05:00,44.0,39.7,29.90,ESE,121,9.3,13.5,85,0.00,,,0.00,VWS V14.00,2013-03-12 08:05:00,
2013-03-12 04:11:00,43.8,39.8,29.89,ESE,108,0.0,13.5,86,0.00,,,0.00,VWS V14.00,2013-03-12 08:11:00,
2013-03-12 04:17:00,43.5,39.9,29.89,SSE,160,7.0,13.5,87,0.00,,,0.00,VWS V14.00,2013-03-12 08:17:00,
2013-03-12 04:23:00,43.3,40.1,29.89,East,98,0.0,13.5,88,0.00,,,0.00,VWS V14.00,2013-03-12 08:23:00,
2013-03-12 04:29:00,43.2,40.3,29.89,ESE,114,4.7,13.5,90,0.00,,,0.00,VWS V14.00,2013-03-12 08:29:00,
2013-03-12 04:35:00,43.1,40.5,29.88,SE,129,5.0,13.5,90,0.00,,,0.00,VWS V14.00,2013-03-12 08:35:00,
2013-03-12 04:44:00,42.9,40.5,29.88,SE,129,0.0,13.5,91,0.00,,,0.00,VWS V14.00,2013-03-12 08:44:00,
2013-03-12 04:50:00,42.9,40.8,29.87,SE,145,7.0,13.5,92,0.00,,,0.00,VWS V14.00,2013-03-12 08:50:00,
2013-03-12 04:56:00,43.0,41.1,29.88,ESE,107,10.0,13.5,93,0.00,,,0.00,VWS V14.00,2013-03-12 08:56:00,
2013-03-12 05:02:00,43.2,41.4,29.88,SSE,150,6.3,13.5,93,0.00,,,0.00,VWS V14.00,2013-03-12 09:02:00,
2013-03-12 05:08:00,43.6,41.9,29.88,ESE,114,4.4,13.5,94,0.00,,,0.00,VWS V14.00,2013-03-12 09:08:00,
2013-03-12 05:14:00,43.5,41.8,29.88,East,101,0.0,13.5,94,0.00,,,0.00,VWS V14.00,2013-03-12 09:14:00,
2013-03-12 05:20:00,43.6,41.9,29.89,SE,139,0.0,13.5,94,0.00,,,0.00,VWS V14.00,2013-03-12 09:20:00,
2013-03-12 05:26:00,43.9,42.3,29.88,ESE,120,6.1,13.9,94,0.00,,,0.00,VWS V14.00,2013-03-12 09:26:00,
2013-03-12 05:33:00,43.8,42.2,29.88,SSE,160,6.5,13.9,94,0.00,,,0.00,VWS V14.00,2013-03-12 09:33:00,
2013-03-12 05:39:00,44.0,42.4,29.88,SE,143,7.1,13.9,94,0.00,,,0.00,VWS V14.00,2013-03-12 09:39:00,
2013-03-12 05:45:00,44.1,42.5,29.88,East,96,4.6,13.9,94,0.00,,,0.00,VWS V14.00,2013-03-12 09:45:00,
2013-03-12 05:51:00,44.0,42.4,29.88,South,174,0.0,13.9,94,0.00,,,0.00,VWS V14.00,2013-03-12 09:51:00,
2013-03-12 05:57:00,44.1,42.6,29.88,East,100,4.8,14.3,94,0.00,,,0.00,VWS V14.00,2013-03-12 09:57:00,
2013-03-12 06:03:00,44.2,42.7,29.88,SE,146,0.0,14.3,94,0.00,,,0.00,VWS V14.00,2013-03-12 10:03:00,
2013-03-12 06:09:00,44.3,43.0,29.88,SE,136,8.3,14.3,95,0.00,,,0.00,VWS V14.00,2013-03-12 10:09:00,
2013-03-12 06:15:00,44.2,42.9,29.88,SSE,162,6.1,14.3,95,0.00,,,0.00,VWS V14.00,2013-03-12 10:15:00,
2013-03-12 06:21:00,44.4,43.1,29.88,East,101,0.0,14.3,95,0.00,,,0.00,VWS V14.00,2013-03-12 10:21:00,
2013-03-12 06:27:00,44.4,43.1,29.88,SE,132,5.2,14.3,95,0.00,,,0.00,VWS V14.00,2013-03-12 10:27:00,
2013-03-12 06:33:00,44.2,42.9,29.88,NE,46,0.0,14.3,95,0.00,,,0.00,VWS V14.00,2013-03-12 10:33:00,
2013-03-12 06:39:00,44.2,42.9,29.87,SE,135,0.0,14.3,95,0.00,,,0.00,VWS V14.00,2013-03-12 10:39:00,
2013-03-12 06:45:00,44.2,43.0,29.87,ESE,108,0.0,14.3,96,0.00,,,0.00,VWS V14.00,2013-03-12 10:45:00,
2013-03-12 06:52:00,44.2,43.2,29.87,SE,138,0.0,14.3,96,0.00,,,0.00,VWS V14.00,2013-03-12 10:52:00,
2013-03-12 06:58:00,44.3,43.3,29.87,ESE,105,0.0,14.3,96,0.00,,,0.00,VWS V14.00,2013-03-12 10:58:00,
2013-03-12 07:04:00,44.4,43.4,29.86,SSE,162,7.8,14.3,96,0.00,,,0.00,VWS V14.00,2013-03-12 11:04:00,
2013-03-12 07:10:00,44.4,43.4,29.86,East,97,0.0,14.3,96,0.00,,,0.00,VWS V14.00,2013-03-12 11:10:00,
2013-03-12 07:19:00,44.9,43.9,29.86,South,170,10.9,14.3,96,0.00,,,0.00,VWS V14.00,2013-03-12 11:19:00,
2013-03-12 07:25:00,44.9,43.8,29.86,SE,138,0.0,14.3,96,0.00,,,0.00,VWS V14.00,2013-03-12 11:25:00,
2013-03-12 07:31:00,44.7,43.6,29.86,ESE,107,0.0,14.3,96,0.00,,,0.00,VWS V14.00,2013-03-12 11:31:00,
2013-03-12 07:37:00,44.8,43.7,29.86,SE,146,9.8,14.7,96,0.00,,,0.00,VWS V14.00,2013-03-12 11:37:00,
2013-03-12 07:43:00,44.7,43.7,29.86,ESE,108,0.0,14.7,96,0.00,,,0.00,VWS V14.00,2013-03-12 11:43:00,
2013-03-12 07:49:00,44.8,43.8,29.85,East,98,0.0,14.7,96,0.00,,,0.00,VWS V14.00,2013-03-12 11:49:00,
2013-03-12 07:55:00,44.9,43.9,29.86,SSE,158,6.0,14.7,96,0.00,,,0.00,VWS V14.00,2013-03-12 11:55:00,
2013-03-12 08:01:00,44.9,43.9,29.85,SSE,150,0.0,14.7,96,0.00,,,0.00,VWS V14.00,2013-03-12 12:01:00,
2013-03-12 08:07:00,45.2,44.2,29.85,East,101,5.9,14.7,96,0.00,,,0.00,VWS V14.00,2013-03-12 12:07:00,
2013-03-12 08:13:00,45.3,44.3,29.85,SE,125,9.6,15.0,96,0.00,,,0.00,VWS V14.00,2013-03-12 12:13:00,
2013-03-12 08:19:00,45.2,44.2,29.85,ESE,121,6.3,15.0,96,0.00,,,0.00,VWS V14.00,2013-03-12 12:19:00,
2013-03-12 08:25:00,45.3,44.2,29.85,ESE,114,0.0,16.5,96,0.00,,,0.00,VWS V14.00,2013-03-12 12:25:00,
2013-03-12 08:32:00,45.4,44.3,29.84,SE,135,6.1,16.5,96,0.00,,,0.00,VWS V14.00,2013-03-12 12:32:00,
2013-03-12 08:38:00,45.6,44.5,29.85,SE,132,4.3,16.5,96,0.00,,,0.00,VWS V14.00,2013-03-12 12:38:00,
2013-03-12 08:44:00,45.8,44.7,29.84,East,89,5.4,16.5,96,0.00,,,0.00,VWS V14.00,2013-03-12 12:44:00,
2013-03-12 08:50:00,45.9,44.7,29.84,ESE,105,6.7,16.5,96,0.00,,,0.00,VWS V14.00,2013-03-12 12:50:00,
2013-03-12 08:56:00,46.0,44.8,29.84,SSE,159,7.8,16.5,96,0.00,,,0.00,VWS V14.00,2013-03-12 12:56:00,
2013-03-12 09:02:00,46.0,44.8,29.84,ESE,111,5.4,16.5,96,0.00,,,0.00,VWS V14.00,2013-03-12 13:02:00,
2013-03-12 09:08:00,46.0,44.8,29.84,SE,142,7.7,16.5,96,0.00,,,0.00,VWS V14.00,2013-03-12 13:08:00,
2013-03-12 09:14:00,46.2,45.1,29.84,SSW,198,5.1,16.5,96,0.00,,,0.00,VWS V14.00,2013-03-12 13:14:00,
2013-03-12 09:20:00,46.2,45.0,29.83,South,169,0.0,16.5,96,0.00,,,0.00,VWS V14.00,2013-03-12 13:20:00,
2013-03-12 09:26:00,46.4,45.2,29.83,SSE,163,10.9,16.5,96,0.00,,,0.00,VWS V14.00,2013-03-12 13:26:00,
2013-03-12 09:32:00,46.5,45.2,29.83,SE,127,4.3,16.9,95,0.00,,,0.00,VWS V14.00,2013-03-12 13:32:00,
2013-03-12 09:38:00,46.7,45.4,29.83,NNE,30,2.9,16.9,95,0.00,,,0.00,VWS V14.00,2013-03-12 13:38:00,
2013-03-12 09:44:00,46.7,45.3,29.83,East,94,0.0,16.9,95,0.00,,,0.00,VWS V14.00,2013-03-12 13:44:00,
2013-03-12 09:50:00,46.9,45.6,29.83,South,188,6.8,16.9,95,0.00,,,0.00,VWS V14.00,2013-03-12 13:50:00,
2013-03-12 09:56:00,47.1,45.8,29.83,ESE,103,6.9,16.9,95,0.00,,,0.00,VWS V14.00,2013-03-12 13:56:00,
2013-03-12 10:02:00,47.0,45.6,29.83,SE,145,0.0,16.9,95,0.00,,,0.00,VWS V14.00,2013-03-12 14:02:00,
2013-03-12 10:08:00,46.9,45.5,29.83,East,94,6.5,16.9,95,0.00,,,0.00,VWS V14.00,2013-03-12 14:08:00,
2013-03-12 10:14:00,46.9,45.5,29.82,SE,138,0.0,16.9,95,0.00,,,0.00,VWS V14.00,2013-03-12 14:14:00,
2013-03-12 10:20:00,46.8,45.4,29.82,ESE,121,6.5,16.9,95,0.00,,,0.00,VWS V14.00,2013-03-12 14:20:00,
2013-03-12 10:26:00,46.9,45.4,29.82,NNE,24,0.0,16.9,95,0.00,,,0.00,VWS V14.00,2013-03-12 14:26:00,
2013-03-12 10:32:00,46.8,45.3,29.82,East,100,7.2,16.9,95,0.00,,,0.00,VWS V14.00,2013-03-12 14:32:00,
2013-03-12 10:39:00,46.9,45.4,29.82,SE,138,5.6,16.9,95,0.00,,,0.00,VWS V14.00,2013-03-12 14:39:00,
2013-03-12 10:45:00,46.9,45.4,29.82,SE,125,7.3,16.9,94,0.00,,,0.00,VWS V14.00,2013-03-12 14:45:00,
2013-03-12 10:51:00,46.9,45.4,29.82,ESE,117,7.3,16.9,94,0.00,,,0.00,VWS V14.00,2013-03-12 14:51:00,
2013-03-12 10:57:00,46.9,45.4,29.82,SSE,158,10.9,16.9,95,0.00,,,0.00,VWS V14.00,2013-03-12 14:57:00,
2013-03-12 11:03:00,46.9,45.5,29.82,ESE,118,10.7,16.9,95,0.00,,,0.00,VWS V14.00,2013-03-12 15:03:00,
2013-03-12 11:09:00,47.1,45.6,29.82,SSE,155,6.2,16.9,95,0.00,,,0.00,VWS V14.00,2013-03-12 15:09:00,
2013-03-12 11:15:00,46.9,45.5,29.82,SE,132,6.3,16.9,95,0.00,,,0.00,VWS V14.00,2013-03-12 15:15:00,
2013-03-12 11:21:00,47.0,45.6,29.82,SE,129,7.5,16.9,95,0.00,,,0.00,VWS V14.00,2013-03-12 15:21:00,
2013-03-12 11:27:00,47.0,45.6,29.81,East,94,6.0,16.9,95,0.00,,,0.00,VWS V14.00,2013-03-12 15:27:00,
2013-03-12 11:33:00,46.9,45.4,29.81,East,100,0.0,16.9,95,0.00,,,0.00,VWS V14.00,2013-03-12 15:33:00,
2013-03-12 11:39:00,46.9,45.5,29.81,SE,132,8.0,16.9,95,0.00,,,0.00,VWS V14.00,2013-03-12 15:39:00,
2013-03-12 11:45:00,47.0,45.6,29.80,SE,135,0.0,17.8,95,0.00,,,0.00,VWS V14.00,2013-03-12 15:45:00,
2013-03-12 11:52:00,46.9,45.5,29.80,ESE,114,4.8,17.8,95,0.00,,,0.00,VWS V14.00,2013-03-12 15:52:00,
2013-03-12 11:58:00,46.9,45.6,29.80,ESE,117,8.9,17.8,95,0.00,,,0.00,VWS V14.00,2013-03-12 15:58:00,
2013-03-12 12:04:00,47.1,45.8,29.80,SE,129,0.0,17.8,95,0.00,,,0.00,VWS V14.00,2013-03-12 16:04:00,
2013-03-12 12:10:00,47.0,45.7,29.80,East,90,0.0,17.8,95,0.00,,,0.00,VWS V14.00,2013-03-12 16:10:00,
2013-03-12 12:19:00,47.0,45.7,29.79,East,87,0.0,17.8,95,0.00,,,0.00,VWS V14.00,2013-03-12 16:19:00,
2013-03-12 12:25:00,47.3,46.0,29.79,SSE,160,6.0,17.8,95,0.00,,,0.00,VWS V14.00,2013-03-12 16:25:00,
2013-03-12 12:35:00,47.3,46.0,29.79,ESE,120,0.0,17.8,95,0.00,,,0.00,VWS V14.00,2013-03-12 16:35:00,
2013-03-12 12:41:00,47.3,46.0,29.79,ESE,108,0.0,17.8,95,0.00,,,0.00,VWS V14.00,2013-03-12 16:41:00,
2013-03-12 12:47:00,47.3,45.9,29.79,ESE,118,7.4,17.8,95,0.00,,,0.00,VWS V14.00,2013-03-12 16:47:00,
2013-03-12 12:53:00,47.4,46.1,29.78,SE,142,4.9,17.8,95,0.00,,,0.00,VWS V14.00,2013-03-12 16:53:00,
2013-03-12 12:59:00,47.5,46.2,29.78,East,87,0.0,17.8,95,0.00,,,0.00,VWS V14.00,2013-03-12 16:59:00,
2013-03-12 13:05:00,47.3,46.0,29.78,ESE,114,5.7,17.8,95,0.00,,,0.00,VWS V14.00,2013-03-12 17:05:00,
2013-03-12 13:11:00,47.5,46.2,29.77,ENE,77,0.0,17.8,95,0.00,,,0.00,VWS V14.00,2013-03-12 17:11:00,
2013-03-12 13:17:00,47.5,46.2,29.77,ENE,72,0.0,17.8,95,0.00,,,0.00,VWS V14.00,2013-03-12 17:17:00,
2013-03-12 13:23:00,47.5,46.3,29.77,SE,138,6.8,17.8,96,0.00,,,0.00,VWS V14.00,2013-03-12 17:23:00,
2013-03-12 13:29:00,47.5,46.2,29.76,SE,131,5.9,17.8,95,0.00,,,0.00,VWS V14.00,2013-03-12 17:29:00,
2013-03-12 13:35:00,47.5,46.2,29.77,ENE,58,0.0,17.8,95,0.00,,,0.00,VWS V14.00,2013-03-12 17:35:00,
2013-03-12 13:41:00,47.4,46.2,29.76,NNE,24,0.0,17.8,96,0.00,,,0.00,VWS V14.00,2013-03-12 17:41:00,
2013-03-12 13:48:00,47.5,46.4,29.76,SE,124,0.0,17.8,96,0.00,,,0.00,VWS V14.00,2013-03-12 17:48:00,
2013-03-12 13:54:00,47.5,46.3,29.75,SE,129,0.0,17.8,96,0.00,,,0.00,VWS V14.00,2013-03-12 17:54:00,
2013-03-12 14:00:00,47.5,46.3,29.75,East,83,4.9,17.8,96,0.00,,,0.00,VWS V14.00,2013-03-12 18:00:00,
2013-03-12 14:09:00,47.4,46.3,29.75,East,93,0.0,17.8,96,0.00,,,0.00,VWS V14.00,2013-03-12 18:09:00,
2013-03-12 14:15:00,47.5,46.5,29.73,ESE,118,0.0,17.8,96,0.00,,,0.00,VWS V14.00,2013-03-12 18:15:00,
2013-03-12 14:21:00,47.4,46.3,29.73,SE,136,8.3,17.8,96,0.00,,,0.00,VWS V14.00,2013-03-12 18:21:00,
2013-03-12 14:27:00,47.5,46.5,29.73,ESE,122,5.4,17.8,96,0.00,,,0.00,VWS V14.00,2013-03-12 18:27:00,
2013-03-12 14:33:00,47.6,46.6,29.73,ESE,122,4.9,17.8,96,0.00,,,0.00,VWS V14.00,2013-03-12 18:33:00,
2013-03-12 14:40:00,47.7,46.7,29.72,SE,143,0.0,17.8,96,0.00,,,0.00,VWS V14.00,2013-03-12 18:40:00,
2013-03-12 14:46:00,47.7,46.7,29.72,SE,124,8.1,17.8,96,0.00,,,0.00,VWS V14.00,2013-03-12 18:46:00,
2013-03-12 14:52:00,47.7,46.6,29.71,ENE,69,4.4,17.8,96,0.00,,,0.00,VWS V14.00,2013-03-12 18:52:00,
2013-03-12 14:58:00,47.7,46.7,29.71,East,100,0.0,17.8,96,0.00,,,0.00,VWS V14.00,2013-03-12 18:58:00,
2013-03-12 15:04:00,47.7,46.8,29.70,SSE,155,5.7,17.8,96,0.00,,,0.00,VWS V14.00,2013-03-12 19:04:00,
2013-03-12 15:10:00,47.6,46.6,29.70,East,101,13.4,17.8,96,0.00,,,0.00,VWS V14.00,2013-03-12 19:10:00,
2013-03-12 15:16:00,47.6,46.6,29.70,ESE,115,6.0,17.8,96,0.00,,,0.00,VWS V14.00,2013-03-12 19:16:00,
2013-03-12 15:22:00,47.6,46.6,29.69,ESE,105,8.0,17.8,96,0.00,,,0.00,VWS V14.00,2013-03-12 19:22:00,
2013-03-12 15:28:00,47.5,46.5,29.69,South,190,0.0,17.8,96,0.00,,,0.00,VWS V14.00,2013-03-12 19:28:00,
2013-03-12 15:34:00,47.5,46.6,29.69,SSE,153,7.9,17.8,96,0.00,,,0.00,VWS V14.00,2013-03-12 19:34:00,
2013-03-12 15:40:00,47.7,46.8,29.69,East,98,4.6,17.8,96,0.00,,,0.00,VWS V14.00,2013-03-12 19:40:00,
2013-03-12 15:46:00,47.6,46.6,29.69,ESE,105,6.6,20.1,96,0.00,,,0.00,VWS V14.00,2013-03-12 19:46:00,
2013-03-12 15:52:00,47.8,46.8,29.68,East,80,7.4,20.1,96,0.00,,,0.00,VWS V14.00,2013-03-12 19:52:00,
2013-03-12 15:58:00,47.8,46.8,29.68,East,89,5.2,20.1,96,0.00,,,0.00,VWS V14.00,2013-03-12 19:58:00,
2013-03-12 16:04:00,47.7,46.8,29.68,SE,145,11.0,20.1,96,0.00,,,0.00,VWS V14.00,2013-03-12 20:04:00,
2013-03-12 16:10:00,47.7,46.8,29.68,ESE,115,0.0,20.1,97,0.00,,,0.00,VWS V14.00,2013-03-12 20:10:00,
2013-03-12 16:17:00,47.8,46.9,29.68,ESE,114,0.0,20.1,96,0.00,,,0.00,VWS V14.00,2013-03-12 20:17:00,
2013-03-12 16:23:00,47.8,46.9,29.67,ESE,120,8.0,20.1,96,0.00,,,0.00,VWS V14.00,2013-03-12 20:23:00,
2013-03-12 16:29:00,47.8,46.9,29.67,ENE,70,4.6,20.1,96,0.00,,,0.00,VWS V14.00,2013-03-12 20:29:00,
2013-03-12 16:35:00,47.8,46.9,29.67,East,100,7.2,20.1,96,0.00,,,0.00,VWS V14.00,2013-03-12 20:35:00,
2013-03-12 16:41:00,47.6,46.6,29.67,SSE,160,0.0,20.1,96,0.00,,,0.00,VWS V14.00,2013-03-12 20:41:00,
2013-03-12 16:47:00,47.6,46.7,29.67,ESE,105,9.4,20.1,97,0.00,,,0.00,VWS V14.00,2013-03-12 20:47:00,
2013-03-12 16:53:00,47.7,46.9,29.67,ESE,118,9.5,20.1,97,0.00,,,0.00,VWS V14.00,2013-03-12 20:53:00,
2013-03-12 16:59:00,47.7,46.9,29.67,ESE,122,0.0,20.1,97,0.00,,,0.00,VWS V14.00,2013-03-12 20:59:00,
2013-03-12 17:05:00,47.6,46.8,29.66,South,173,0.0,20.1,97,0.00,,,0.00,VWS V14.00,2013-03-12 21:05:00,
2013-03-12 17:11:00,47.7,46.9,29.66,ESE,122,7.8,20.1,97,0.00,,,0.00,VWS V14.00,2013-03-12 21:11:00,
2013-03-12 17:17:00,47.8,47.0,29.66,ESE,104,5.3,20.1,97,0.00,,,0.00,VWS V14.00,2013-03-12 21:17:00,
2013-03-12 17:23:00,48.0,47.3,29.65,SSE,156,0.0,20.1,97,0.00,,,0.00,VWS V14.00,2013-03-12 21:23:00,
2013-03-12 17:29:00,48.0,47.2,29.66,East,84,7.5,20.1,97,0.00,,,0.00,VWS V14.00,2013-03-12 21:29:00,
2013-03-12 17:35:00,48.1,47.3,29.65,ESE,114,0.0,20.1,97,0.00,,,0.00,VWS V14.00,2013-03-12 21:35:00,
2013-03-12 17:41:00,48.1,47.3,29.64,East,93,7.4,20.1,97,0.00,,,0.00,VWS V14.00,2013-03-12 21:41:00,
2013-03-12 17:47:00,48.1,47.4,29.62,East,97,0.0,20.1,97,0.00,,,0.00,VWS V14.00,2013-03-12 21:47:00,
2013-03-12 17:54:00,48.4,47.7,29.63,NE,44,3.5,20.1,97,0.00,,,0.00,VWS V14.00,2013-03-12 21:54:00,
2013-03-12 18:00:00,48.4,47.7,29.62,ESE,115,7.6,20.1,97,0.00,,,0.00,VWS V14.00,2013-03-12 22:00:00,
2013-03-12 18:06:00,48.5,47.7,29.63,ESE,108,6.8,20.1,97,0.00,,,0.00,VWS V14.00,2013-03-12 22:06:00,
2013-03-12 18:12:00,48.6,47.7,29.63,East,93,0.0,20.1,97,0.00,,,0.00,VWS V14.00,2013-03-12 22:12:00,
2013-03-12 18:18:00,48.5,47.6,29.63,NNE,13,5.6,20.1,97,0.00,,,0.00,VWS V14.00,2013-03-12 22:18:00,
2013-03-12 18:24:00,48.4,47.6,29.64,NNE,14,0.0,20.1,97,0.00,,,0.00,VWS V14.00,2013-03-12 22:24:00,
2013-03-12 18:30:00,48.4,47.6,29.64,NNE,14,0.0,20.1,97,0.00,,,0.00,VWS V14.00,2013-03-12 22:30:00,
2013-03-12 18:36:00,48.1,47.4,29.64,SE,142,0.0,20.1,97,0.00,,,0.00,VWS V14.00,2013-03-12 22:36:00,
2013-03-12 18:42:00,48.0,47.4,29.64,SSE,166,7.5,20.1,98,0.00,,,0.00,VWS V14.00,2013-03-12 22:42:00,
2013-03-12 18:48:00,47.7,47.2,29.64,East,79,0.0,20.1,98,0.00,,,0.00,VWS V14.00,2013-03-12 22:48:00,
2013-03-12 18:54:00,47.8,47.3,29.64,ENE,68,0.0,20.1,98,0.00,,,0.00,VWS V14.00,2013-03-12 22:54:00,
2013-03-12 19:00:00,47.7,47.2,29.64,ENE,68,0.0,20.1,98,0.00,,,0.00,VWS V14.00,2013-03-12 23:00:00,
2013-03-12 19:06:00,47.6,47.2,29.64,ENE,68,0.0,20.1,98,0.00,,,0.00,VWS V14.00,2013-03-12 23:06:00,
2013-03-12 19:12:00,47.8,47.5,29.64,ENE,68,0.0,20.1,99,0.00,,,0.00,VWS V14.00,2013-03-12 23:12:00,
2013-03-12 19:18:00,47.6,47.3,29.64,ENE,68,0.0,20.1,99,0.00,,,0.00,VWS V14.00,2013-03-12 23:18:00,
2013-03-12 19:25:00,47.6,47.3,29.64,ENE,68,0.0,20.1,99,0.00,,,0.00,VWS V14.00,2013-03-12 23:25:00,
2013-03-12 19:31:00,47.5,47.2,29.64,ENE,68,0.0,20.1,99,0.00,,,0.00,VWS V14.00,2013-03-12 23:31:00,
2013-03-12 19:37:00,47.4,47.2,29.64,ENE,68,0.0,20.1,99,0.00,,,0.00,VWS V14.00,2013-03-12 23:37:00,
2013-03-12 19:43:00,47.3,47.2,29.65,ENE,68,0.0,20.1,100,0.00,,,0.00,VWS V14.00,2013-03-12 23:43:00,
2013-03-12 19:49:00,47.2,47.1,29.65,ENE,68,0.0,20.1,100,0.00,,,0.00,VWS V14.00,2013-03-12 23:49:00,
2013-03-12 19:55:00,47.2,47.2,29.65,ENE,68,0.0,20.1,100,0.00,,,0.00,VWS V14.00,2013-03-12 23:55:00,
2013-03-12 20:01:00,47.2,47.2,29.65,ENE,68,0.0,20.1,100,0.00,,,0.00,VWS V14.00,2013-03-13 00:01:00,
2013-03-12 20:07:00,47.2,47.2,29.65,ENE,68,0.0,20.1,100,0.00,,,0.00,VWS V14.00,2013-03-13 00:07:00,
2013-03-12 20:13:00,47.1,47.1,29.66,NNW,336,5.1,20.1,100,0.00,,,0.00,VWS V14.00,2013-03-13 00:13:00,
2013-03-12 20:19:00,46.7,46.7,29.67,North,350,0.0,20.1,100,0.00,,,0.00,VWS V14.00,2013-03-13 00:19:00,
2013-03-12 20:25:00,45.7,45.5,29.67,NW,326,0.0,20.1,99,0.00,,,0.00,VWS V14.00,2013-03-13 00:25:00,
2013-03-12 20:32:00,44.8,44.6,29.68,NW,322,0.0,20.1,99,0.00,,,0.00,VWS V14.00,2013-03-13 00:32:00,
2013-03-12 20:38:00,43.6,43.4,29.69,NW,318,0.0,20.1,99,0.00,,,0.00,VWS V14.00,2013-03-13 00:38:00,
2013-03-12 20:44:00,42.6,42.4,29.68,NW,308,6.0,20.1,99,0.00,,,0.00,VWS V14.00,2013-03-13 00:44:00,
2013-03-12 20:50:00,42.0,41.9,29.69,NNW,345,0.0,20.1,100,0.00,,,0.00,VWS V14.00,2013-03-13 00:50:00,
2013-03-12 20:59:00,40.9,40.9,29.69,NNW,328,0.0,20.1,100,0.00,,,0.00,VWS V14.00,2013-03-13 00:59:00,
2013-03-12 21:05:00,40.7,40.7,29.69,NNW,328,0.0,20.1,100,0.00,,,0.00,VWS V14.00,2013-03-13 01:05:00,
2013-03-12 21:11:00,40.4,40.4,29.69,NNW,328,0.0,20.1,100,0.00,,,0.00,VWS V14.00,2013-03-13 01:11:00,
2013-03-12 21:17:00,40.1,40.1,29.69,NNW,328,0.0,20.1,100,0.00,,,0.00,VWS V14.00,2013-03-13 01:17:00,
2013-03-12 21:23:00,40.0,40.0,29.70,NNW,328,0.0,20.1,100,0.00,,,0.00,VWS V14.00,2013-03-13 01:23:00,
2013-03-12 21:30:00,39.8,39.8,29.71,NNW,328,0.0,20.1,100,0.00,,,0.00,VWS V14.00,2013-03-13 01:30:00,
2013-03-12 21:36:00,39.4,39.4,29.71,NNW,328,0.0,20.1,100,0.00,,,0.00,VWS V14.00,2013-03-13 01:36:00,
2013-03-12 21:42:00,39.3,39.3,29.71,NNW,328,0.0,20.1,100,0.00,,,0.00,VWS V14.00,2013-03-13 01:42:00,
2013-03-12 21:48:00,39.1,39.1,29.71,NNW,328,0.0,20.1,100,0.00,,,0.00,VWS V14.00,2013-03-13 01:48:00,
2013-03-12 21:54:00,38.9,38.9,29.71,NNW,328,0.0,20.1,100,0.00,,,0.00,VWS V14.00,2013-03-13 01:54:00,
2013-03-12 22:00:00,38.8,38.8,29.72,NNW,343,0.0,20.1,100,0.00,,,0.00,VWS V14.00,2013-03-13 02:00:00,
2013-03-12 22:06:00,38.7,38.7,29.72,NNW,343,0.0,20.1,100,0.00,,,0.00,VWS V14.00,2013-03-13 02:06:00,
2013-03-12 22:12:00,38.3,38.3,29.72,NW,316,0.0,20.1,100,0.00,,,0.00,VWS V14.00,2013-03-13 02:12:00,
2013-03-12 22:18:00,38.2,38.2,29.73,NW,316,0.0,20.1,100,0.00,,,0.00,VWS V14.00,2013-03-13 02:18:00,
2013-03-12 22:24:00,38.2,38.2,29.73,NW,316,0.0,20.1,100,0.00,,,0.00,VWS V14.00,2013-03-13 02:24:00,
2013-03-12 22:30:00,38.1,38.1,29.73,NW,316,0.0,20.1,100,0.00,,,0.00,VWS V14.00,2013-03-13 02:30:00,
2013-03-12 22:36:00,37.9,37.9,29.74,WNW,287,0.0,20.1,100,0.00,,,0.00,VWS V14.00,2013-03-13 02:36:00,
2013-03-12 22:42:00,37.8,37.8,29.74,WNW,287,0.0,20.1,100,0.00,,,0.00,VWS V14.00,2013-03-13 02:42:00,
2013-03-12 22:48:00,37.7,37.7,29.75,WNW,287,0.0,20.1,100,0.00,,,0.00,VWS V14.00,2013-03-13 02:48:00,
2013-03-12 22:54:00,37.6,37.6,29.75,NNW,333,0.0,20.1,100,0.00,,,0.00,VWS V14.00,2013-03-13 02:54:00,
2013-03-12 23:00:00,37.5,37.5,29.75,NW,319,0.0,20.1,100,0.00,,,0.00,VWS V14.00,2013-03-13 03:00:00,
2013-03-12 23:10:00,37.1,37.1,29.76,NW,319,0.0,20.1,100,0.00,,,0.00,VWS V14.00,2013-03-13 03:10:00,
2013-03-12 23:19:00,36.6,36.6,29.76,NNW,330,0.0,20.1,100,0.00,,,0.00,VWS V14.00,2013-03-13 03:19:00,
2013-03-12 23:25:00,36.1,36.1,29.77,NNW,330,0.0,20.1,100,0.00,,,0.00,VWS V14.00,2013-03-13 03:25:00,
2013-03-12 23:31:00,35.9,35.9,29.76,NNW,330,0.0,20.1,100,0.00,,,0.00,VWS V14.00,2013-03-13 03:31:00,
2013-03-12 23:37:00,35.8,35.8,29.76,NNW,330,0.0,20.1,100,0.00,,,0.00,VWS V14.00,2013-03-13 03:37:00,
2013-03-12 23:43:00,35.6,35.6,29.76,NNW,330,0.0,20.1,100,0.00,,,0.00,VWS V14.00,2013-03-13 03:43:00,
2013-03-12 23:49:00,35.5,35.5,29.76,NNW,330,0.0,20.1,100,0.00,,,0.00,VWS V14.00,2013-03-13 03:49:00,
2013-03-12 23:55:00,35.4,35.4,29.77,NNW,330,0.0,20.1,100,0.00,,,0.00,VWS V14.00,2013-03-13 03:55:00,